カタログに戻る

MUOS 5

運用中軍事MEO
NORAD 41622·PAYLOAD·🇺🇸 United States

打ち上げ Jun 24, 2016 から Cape Canaveral Space Force Station

Loading…

次のパス (今後24時間)

TLE

最新Source: Space-Track

元期: Sep 14, 2026, 13:17 UTC

1 41622U 16041A   26257.55391080 -.00000170  00000-0  00000-0 0  9999
2 41622   2.0208 303.6874 0203708 260.7619 243.5146  1.00272668 37985

AllMySatでMUOS 5をリアルタイム追跡

Download on the App Store